Regional Weather Roundup
Issued by NWS

Home | Current Version | Previous Version | Text Only | Print | Product List | Glossary On
Versions: 1 2 3 4 5 6 7 8 9 10 11 12 13 14 15 16 17 18 19 20 21 22 23 24 25 26 27 28 29 30 31 32 33 34 35 36 37 38 39 40 41 42 43 44 45 46 47 48 49 50
000
ASUS43 KLMK 262310
RWRKY
KENTUCKY REGIONAL WEATHER ROUNDUP
NATIONAL WEATHER SERVICE LOUISVILLE KY
600 PM EST THU FEB 26 2015

NOTE "FAIR" INDICATES FEW OR NO CLOUDS BELOW 12,000 FEET
WITH NO SIGNIFICANT WEATHER AND/OR OBSTRUCTIONS TO VISIBILITY.

KYZ001>023-026-027-061>063-070>075-270000-
WESTERN AND SOUTH CENTRAL KENTUCKY

CITY           SKY/WX    TMP DP  RH WIND       PRES   REMARKS
PADUCAH        CLOUDY    27  18  69 N14       30.27R WCI  16
HENDERSON      CLOUDY    27  16  63 NW12G17   30.25R WCI  16
OWENSBORO      FLURRIES  27  19  71 N12G18    30.23R WCI  17
HOPKINSVILLE   FLURRIES  29  24  81 NW10      30.20R WCI  20
BOWLING GREEN  CLOUDY    32  20  61 NW12G21   30.16R WCI  23
GLASGOW        CLOUDY    34  20  56 NW8       30.13R WCI  27
$$

KYZ024-025-028>034-038-045-046-053-270000-
NORTH CENTRAL KENTUCKY

CITY           SKY/WX    TMP DP  RH WIND       PRES   REMARKS
LOUISVILLE/SDF FLURRIES  25  13  60 N16       30.21R WCI  12
LOUISVILLE/LOU CLOUDY    23  12  62 N14G20    30.21R WCI  11
FORT KNOX      LGT SNOW  26  19  73 N8        30.16R WCI  18
$$

KYZ035>037-039>044-047>052-055>060-089>105-270000-
NORTHEAST KENTUCKY

CITY           SKY/WX    TMP DP  RH WIND       PRES   REMARKS
LEXINGTON      CLOUDY    28  17  63 N13       30.12R WCI  17
COVINGTON      LGT SNOW  19  11  70 N16       30.17R WCI   4
FRANKFORT      FLURRIES  27  18  69 NW9       30.14R WCI  18
$$

KYZ054-064>069-076>088-106>120-270000-
SOUTHEAST KENTUCKY

CITY           SKY/WX    TMP DP  RH WIND       PRES   REMARKS
JACKSON        CLOUDY    33  16  49 NW8G16    30.04R WCI  26
LONDON         MOCLDY    36  16  44 NW8       30.06R WCI  30
SOMERSET       MOCLDY    34  18  51 NW6       30.10R WCI  29
MIDDLESBORO    MOCLDY    37  25  64 CALM      30.05R
MONTICELLO     PTCLDY    36  20  52 NW7       30.11R WCI  30
$$



USA.gov is the U.S. government's official web portal to all federal, state and local government web resources and services.